Flag for U.S.A. Weather past 2 weeks in Mason, Ohio, U.S.A.

Now
56 °F

Sunny.


Feels Like: 54 °F
Forecast: 36 / 63 °F
Wind: 7 mph from North

Location: Butler County Regional Airport

Current Time: Apr 28, 2015 at 12:30:31 PM

Latest Report: Apr 28, 2015 at 11:53 AM


Visibility: 10 mi

Pressure: 30.14 "Hg

Humidity: 49%

Dew point: 37 °F

Location of MasonLocation

Historic Weather in Mason — Graph

°F

Mason temperature yesterday

Maximum temperature yesterday: 62 °F (at 2:53 PM)
Minimum temperature yesterday: 35 °F (at 5:53 AM)
Average temperature yesterday: 49 °F

Past Weeks' High & Low Weather Summary

 TemperatureHumidityPressure
High80 °F (Apr 13, 3:53 PM)100% (Apr 16, 10:53 PM)30.22 "Hg (Apr 16, 10:53 PM)
Low30 °F (Apr 24, 3:53 AM)22% (Apr 21, 4:53 PM)29.41 "Hg (Apr 19, 11:53 PM)
Average55 °F65%29.95 "Hg
* Reported Apr 13 10:53 AM — Apr 28 10:53 AM, Mason, Weather by CustomWeather, © 2015

Note: Actual official high and low records may vary slightly from our data, if they occured in-between our weather recording intervals... More about our weather records

Advertising

Mason weather history for previous 24 hours

 ConditionsComfort  
Time TempWeatherWind HumidityBarometerVisibility
10:53 AM
Tue, Apr 28
54 °FSunny.9 mph57%30.15 "Hg10 mi
9:53 AM51 °FSunny.6 mph63%30.15 "Hg10 mi
8:53 AM47 °FSunny.5 mph74%30.15 "Hg10 mi
7:53 AM41 °FSunny.No wind89%30.15 "Hg10 mi
6:53 AM35 °FClear.No wind92%30.14 "Hg9 mi
5:53 AM34 °FClear.No wind97%30.13 "Hg9 mi
4:53 AM35 °FClear.No wind96%30.11 "Hg10 mi
3:53 AM37 °FClear.No wind93%30.09 "Hg9 mi
2:53 AM39 °FClear.No wind89%30.09 "Hg10 mi
1:53 AM43 °FClear.5 mph79%30.09 "Hg10 mi
12:53 AM41 °FClear.No wind86%30.09 "Hg10 mi
11:53 PM
Mon, Apr 27
45 °FClear.3 mph74%30.09 "Hg10 mi
10:53 PM50 °FOvercast.10 mph63%30.08 "Hg10 mi
9:53 PM51 °FOvercast.10 mph59%30.07 "Hg10 mi
8:53 PM53 °FOvercast.10 mph56%30.05 "Hg10 mi
7:53 PM54 °FOvercast.12 mph55%30.03 "Hg10 mi
6:53 PM56 °FOvercast.14 mph51%30.02 "Hg10 mi
5:53 PM57 °FOvercast.13 mph49%30.01 "Hg10 mi
4:53 PM59 °FMore clouds than sun.13 mph48%29.99 "Hg10 mi
3:53 PM60 °FOvercast.8 mph46%29.98 "Hg10 mi
2:53 PM62 °FPartly sunny.9 mph43%29.98 "Hg10 mi
1:53 PM61 °FSunny.12 mph42%29.98 "Hg10 mi
12:53 PM59 °FPassing clouds.12 mph44%30.00 "Hg10 mi
Weather by CustomWeather, © 2015

See weather overviewHow to use our weather pages